TimeCDT,TemperatureF,Dew PointF,Humidity,Sea Level PressureIn,VisibilityMPH,Wind Direction,Wind SpeedMPH,Gust SpeedMPH,PrecipitationIn,Events,Conditions,WindDirDegrees,DateUTC
12:15 AM,84.2,62.6,48,30.01,10.0,SSE,11.5,-,N/A,,Clear,160,2013-06-21 05:15:00
12:35 AM,84.2,62.6,48,30.02,10.0,SSE,13.8,21.9,N/A,,Clear,160,2013-06-21 05:35:00
12:55 AM,82.4,64.4,54,30.02,10.0,SSE,10.4,-,N/A,,Clear,160,2013-06-21 05:55:00
1:15 AM,82.4,64.4,54,30.01,10.0,South,12.7,18.4,N/A,,Clear,170,2013-06-21 06:15:00
1:35 AM,82.4,64.4,54,30.01,10.0,South,11.5,17.3,N/A,,Clear,170,2013-06-21 06:35:00
1:55 AM,82.4,64.4,54,30.01,10.0,SSE,11.5,17.3,N/A,,Clear,160,2013-06-21 06:55:00
2:15 AM,82.4,64.4,54,30.01,10.0,South,10.4,17.3,N/A,,Clear,170,2013-06-21 07:15:00
2:35 AM,82.4,64.4,54,30.02,10.0,South,10.4,16.1,N/A,,Clear,180,2013-06-21 07:35:00
2:55 AM,82.4,64.4,54,30.01,10.0,South,10.4,-,N/A,,Clear,170,2013-06-21 07:55:00
3:15 AM,80.6,64.4,58,30.02,10.0,South,8.1,-,N/A,,Clear,180,2013-06-21 08:15:00
3:35 AM,80.6,64.4,58,30.02,10.0,SSW,10.4,-,N/A,,Clear,200,2013-06-21 08:35:00
3:55 AM,80.6,64.4,58,30.02,10.0,South,8.1,-,N/A,,Clear,180,2013-06-21 08:55:00
4:15 AM,80.6,64.4,58,30.02,10.0,South,9.2,-,N/A,,Clear,190,2013-06-21 09:15:00
4:35 AM,80.6,64.4,58,30.02,10.0,South,9.2,-,N/A,,Clear,180,2013-06-21 09:35:00
4:55 AM,78.8,64.4,61,30.02,10.0,South,8.1,-,N/A,,Clear,180,2013-06-21 09:55:00
5:15 AM,78.8,64.4,61,30.03,10.0,South,8.1,-,N/A,,Clear,190,2013-06-21 10:15:00
5:35 AM,78.8,66.2,65,30.03,10.0,South,10.4,-,N/A,,Clear,190,2013-06-21 10:35:00
5:50 AM,78.8,68.0,69,30.04,10.0,South,10.4,-,N/A,,Partly Cloudy,170,2013-06-21 10:50:00
5:55 AM,78.8,66.2,65,30.03,10.0,South,9.2,-,N/A,,Clear,180,2013-06-21 10:55:00
6:47 AM,77.0,68.0,74,30.04,10.0,SSE,10.4,-,N/A,,Scattered Clouds,160,2013-06-21 11:47:00
7:47 AM,78.8,69.8,74,30.06,10.0,South,9.2,-,N/A,,Scattered Clouds,180,2013-06-21 12:47:00
8:59 AM,80.6,69.8,70,30.07,10.0,South,9.2,17.3,N/A,,Scattered Clouds,190,2013-06-21 13:59:00
9:47 AM,82.4,69.8,66,30.08,10.0,South,9.2,17.3,N/A,,Scattered Clouds,190,2013-06-21 14:47:00
10:47 AM,86.0,69.8,58,30.08,10.0,South,13.8,20.7,N/A,,Scattered Clouds,170,2013-06-21 15:47:00
12:50 PM,89.6,66.2,46,30.07,13.0,South,12.7,21.9,N/A,,Clear,170,2013-06-21 17:50:00
1:47 PM,91.4,64.4,41,30.05,13.0,South,15.0,20.7,N/A,,Clear,180,2013-06-21 18:47:00
2:47 PM,93.2,64.4,38,30.04,13.0,South,13.8,23.0,N/A,,Clear,180,2013-06-21 19:47:00
3:47 PM,93.2,62.6,36,30.02,11.0,South,12.7,23.0,N/A,,Clear,190,2013-06-21 20:47:00
4:47 PM,95.0,60.8,32,30.00,10.0,South,15.0,25.3,N/A,,Clear,180,2013-06-21 21:47:00
5:47 PM,96.8,60.8,30,29.99,10.0,South,16.1,27.6,N/A,,Scattered Clouds,180,2013-06-21 22:47:00
6:47 PM,93.2,59.0,32,29.97,10.0,SSE,17.3,26.5,N/A,,Scattered Clouds,160,2013-06-21 23:47:00
7:47 PM,91.4,60.8,36,29.98,11.0,SSE,13.8,23.0,N/A,,Scattered Clouds,160,2013-06-22 00:47:00
8:47 PM,89.6,60.8,38,29.97,11.0,SSE,11.5,-,N/A,,Partly Cloudy,150,2013-06-22 01:47:00
9:49 PM,87.8,64.4,46,29.98,10.0,SE,9.2,15.0,N/A,,Partly Cloudy,130,2013-06-22 02:49:00
10:15 PM,87.8,62.6,43,29.98,10.0,SE,11.5,19.6,N/A,,Clear,140,2013-06-22 03:15:00
10:35 PM,87.8,60.8,40,29.99,10.0,SE,13.8,18.4,N/A,,Clear,140,2013-06-22 03:35:00
10:55 PM,86.0,60.8,43,30.00,10.0,SSE,15.0,19.6,N/A,,Clear,150,2013-06-22 03:55:00
11:15 PM,86.0,62.6,45,30.00,10.0,SSE,16.1,19.6,N/A,,Clear,160,2013-06-22 04:15:00
11:35 PM,86.0,62.6,45,30.01,10.0,SSE,13.8,24.2,N/A,,Clear,160,2013-06-22 04:35:00
11:55 PM,86.0,62.6,45,30.00,10.0,SSE,15.0,23.0,N/A,,Clear,160,2013-06-22 04:55:00